[[{"header":{"parameterUnit":"m.s-1","parameterCategory":2,"la1":30.2992,"la2":30.254,"lo1":-89.0895,"lo2":-89.0443,"dy":0.0025,"dx":0.0025,"nx":19,"ny":19,"refTime":"2026-04-30T21:00:00:Z","depth":"0","parameterNumber":2,"parameterNumberName":"U-component_of_CURRENTS"},"data":[0,0,0,-0.1811,-0.1811,-0.1817,-0.1817,-0.1856,-0.1857,0,0,0,0,0,0,0,0,0,0,0,-0.1803,-0.1803,-0.1811,-0.1811,-0.1817,-0.1817,-0.1856,-0.1857,0,0,0,0,0,0,0,0,0,0,0,-0.1803,-0.1803,-0.1803,-0.1811,-0.1817,-0.1817,-0.1856,-0.1842,0,0,0,0,0,0,0,0,0,0,-0.1832,-0.1815,-0.1803,-0.1803,-0.1811,-0.1817,-0.1817,-0.1841,-0.1843,-0.1864,0,-0.1864,0,-0.1867,-0.1861,-0.1861,0,0,0,-0.1806,-0.1813,-0.1825,-0.1803,-0.1811,-0.1817,-0.1813,-0.1842,-0.1844,-0.1867,-0.1864,-0.1866,-0.1867,-0.1861,-0.1861,-0.1956,-0.1957,0,0,-0.1806,-0.1797,-0.1823,-0.1826,-0.1812,-0.1813,-0.1813,-0.1843,-0.1841,-0.1864,-0.1867,-0.1868,-0.1861,-0.1862,-0.1956,-0.1956,0,0,0,-0.1808,-0.1796,-0.1806,-0.1825,-0.1826,-0.1813,-0.1813,-0.1839,-0.1845,-0.1867,-0.1869,-0.1862,-0.1862,-0.1955,-0.1956,-0.1978,0,0,0,-0.1808,-0.1798,-0.1806,-0.1799,-0.1825,-0.1827,-0.1808,-0.1842,-0.1846,-0.1868,-0.1862,-0.1863,-0.1954,-0.1955,-0.1976,-0.1983,0,0,0,-0.1803,-0.1798,-0.18,-0.1799,-0.1805,-0.1826,-0.1833,-0.1843,-0.1848,-0.1861,-0.1863,-0.1954,-0.1955,-0.1974,-0.198,-0.2033,0,0,0,-0.1791,-0.1789,-0.18,-0.1808,-0.1805,-0.1848,-0.1833,-0.1859,-0.1873,-0.1862,-0.1954,-0.1956,-0.1973,-0.1978,-0.203,-0.2145,-0.2165,0,0,-0.1783,-0.1787,-0.1797,-0.1808,-0.1855,-0.1846,-0.1897,-0.1904,-0.1904,-0.1944,-0.1946,-0.1976,-0.198,-0.2032,-0.223,-0.2247,0,0,0,-0.1792,-0.18,-0.1818,-0.1847,-0.188,-0.1922,-0.1931,-0.1938,-0.1965,-0.192,-0.2,-0.2002,-0.2034,-0.21,-0.2114,-0.2312,-0.1963,-0.1962,-0.1962,-0.1768,-0.1804,-0.1837,-0.189,-0.1924,-0.1978,-0.2003,-0.202,-0.201,-0.2029,-0.2038,-0.2116,-0.2187,-0.2198,-0.2402,-0.206,-0.206,-0.206,-0.206,-0.1772,-0.1789,-0.1856,-0.1893,-0.1962,-0.2007,-0.2071,-0.2074,-0.2118,-0.2085,-0.2116,-0.2141,-0.2215,-0.2427,-0.2062,-0.2061,-0.2061,-0.2061,-0.2061,-0.1755,-0.1765,-0.1799,-0.1865,-0.1941,-0.2015,-0.2105,-0.2124,-0.2142,-0.2169,-0.2262,-0.2263,-0.2434,-0.2193,-0.2193,-0.2193,-0.2193,-0.2194,-0.2194,-0.1702,-0.1742,-0.1764,-0.1836,-0.189,-0.1982,-0.2112,-0.2185,-0.2284,-0.2306,-0.2307,-0.251,-0.2157,-0.2135,-0.2198,-0.2197,-0.2197,-0.2196,-0.2196,-0.1654,-0.1659,-0.1701,-0.1746,-0.1886,-0.2026,-0.2154,-0.2388,-0.2447,-0.2525,-0.273,-0.2393,-0.2401,-0.2391,-0.2376,-0.2498,-0.2498,-0.2498,-0.2498,-0.1597,-0.1611,-0.1658,-0.1741,-0.1873,-0.2047,-0.2363,-0.262,-0.2853,-0.2974,-0.2966,-0.299,-0.2968,-0.301,-0.2986,-0.2983,-0.3257,-0.3258,-0.3259,-0.1553,-0.158,-0.1608,-0.171,-0.1875,-0.2108,-0.2473,-0.2996,-0.3297,-0.3306,-0.3226,-0.3194,-0.3237,-0.3188,-0.3252,-0.3203,-0.3195,0,0]},{"header":{"parameterUnit":"m.s-1","parameterCategory":2,"la1":30.2992,"la2":30.254,"lo1":-89.0895,"lo2":-89.0443,"dy":0.0025,"dx":0.0025,"nx":19,"ny":19,"refTime":"2026-04-30T21:00:00:Z","depth":"0","parameterNumber":3,"parameterNumberName":"V-component_of_CURRENTS"},"data":[0,0,0,-0.0485,-0.0483,-0.0385,-0.0384,-0.0298,-0.0298,0,0,0,0,0,0,0,0,0,0,0,-0.0523,-0.0523,-0.0485,-0.0483,-0.0385,-0.0384,-0.0298,-0.0298,0,0,0,0,0,0,0,0,0,0,0,-0.0523,-0.0523,-0.0523,-0.0483,-0.0385,-0.0384,-0.0298,-0.036,0,0,0,0,0,0,0,0,0,0,-0.045,-0.0485,-0.0523,-0.0522,-0.0482,-0.0385,-0.0384,-0.0363,-0.0357,-0.0357,0,-0.0349,0,-0.0324,-0.0294,-0.0293,0,0,0,-0.0473,-0.049,-0.0463,-0.0522,-0.0481,-0.0385,-0.0426,-0.0359,-0.0352,-0.0349,-0.0347,-0.0344,-0.0323,-0.0293,-0.0293,-0.0281,-0.0282,0,0,-0.0479,-0.0503,-0.0468,-0.0459,-0.0466,-0.043,-0.0423,-0.0354,-0.0353,-0.0347,-0.0341,-0.0321,-0.0293,-0.0292,-0.0281,-0.0281,0,0,0,-0.0501,-0.0507,-0.0481,-0.0463,-0.0444,-0.0427,-0.042,-0.0355,-0.0347,-0.034,-0.032,-0.0293,-0.0292,-0.0281,-0.0281,-0.0334,0,0,0,-0.0504,-0.0521,-0.0484,-0.0497,-0.0445,-0.0393,-0.0423,-0.0351,-0.0342,-0.0321,-0.0292,-0.0291,-0.028,-0.0281,-0.0332,-0.0366,0,0,0,-0.0526,-0.0523,-0.0514,-0.0498,-0.0459,-0.0393,-0.038,-0.0348,-0.0331,-0.0293,-0.0291,-0.028,-0.0281,-0.033,-0.0362,-0.0362,0,0,0,-0.055,-0.0553,-0.0515,-0.0518,-0.046,-0.0435,-0.038,-0.0353,-0.0327,-0.0292,-0.028,-0.0281,-0.033,-0.036,-0.036,-0.0379,-0.0389,0,0,-0.0571,-0.0557,-0.056,-0.0524,-0.0528,-0.0447,-0.044,-0.038,-0.0337,-0.0303,-0.0302,-0.0333,-0.0362,-0.0361,-0.0423,-0.0431,0,0,0,-0.0578,-0.0587,-0.058,-0.0572,-0.0535,-0.0506,-0.0437,-0.0401,-0.0357,-0.0325,-0.0333,-0.035,-0.0348,-0.0355,-0.0363,-0.0172,-0.0285,-0.0284,-0.0284,-0.0641,-0.0628,-0.0651,-0.0634,-0.0612,-0.0546,-0.0509,-0.0449,-0.0401,-0.0392,-0.0393,-0.0432,-0.0442,-0.0447,-0.0251,-0.0387,-0.0387,-0.0387,-0.0388,-0.0704,-0.0723,-0.0712,-0.0728,-0.0693,-0.0677,-0.0585,-0.0535,-0.0475,-0.044,-0.0434,-0.0412,-0.0458,-0.0246,-0.0391,-0.039,-0.039,-0.039,-0.0389,-0.0755,-0.0765,-0.0776,-0.0806,-0.0811,-0.0755,-0.0739,-0.064,-0.0543,-0.0528,-0.0506,-0.0505,-0.0316,-0.0517,-0.0517,-0.0517,-0.0517,-0.0517,-0.0517,-0.0798,-0.0813,-0.087,-0.0887,-0.0919,-0.0916,-0.0822,-0.0766,-0.065,-0.0573,-0.0573,-0.0309,-0.0471,-0.0463,-0.052,-0.0519,-0.0519,-0.0519,-0.0519,-0.0854,-0.0864,-0.0961,-0.1009,-0.109,-0.1161,-0.1029,-0.0904,-0.0793,-0.0741,-0.0374,-0.0579,-0.0559,-0.0553,-0.0547,-0.0622,-0.0622,-0.0622,-0.0622,-0.0892,-0.0905,-0.1068,-0.1186,-0.1273,-0.1287,-0.1328,-0.1124,-0.0675,-0.0435,-0.0306,-0.0254,-0.0258,-0.0215,-0.0217,-0.0201,-0.0187,-0.0186,-0.0185,-0.0936,-0.0989,-0.1131,-0.1267,-0.1382,-0.1455,-0.1544,-0.1321,-0.0559,-0.0144,-0.0033,-0.0051,0.0051,0.0028,0.0115,0.0098,0.013,0,0]}],[{"header":{"parameterUnit":"m.s-1","parameterCategory":2,"la1":30.2992,"la2":30.254,"lo1":-89.0895,"lo2":-89.0443,"dy":0.0025,"dx":0.0025,"nx":19,"ny":19,"refTime":"2026-04-30T21:00:00:Z","depth":"2","parameterNumber":2,"parameterNumberName":"U-component_of_CURRENTS"},"data":[0,0,0,-0.1764,-0.1764,-0.1772,-0.1772,-0.1811,-0.1812,0,0,0,0,0,0,0,0,0,0,0,-0.1756,-0.1756,-0.1764,-0.1764,-0.1772,-0.1772,-0.1811,-0.1812,0,0,0,0,0,0,0,0,0,0,0,-0.1756,-0.1756,-0.1756,-0.1764,-0.1772,-0.1772,-0.1811,-0.1797,0,0,0,0,0,0,0,0,0,0,-0.1785,-0.1768,-0.1756,-0.1756,-0.1764,-0.1772,-0.1772,-0.1796,-0.1798,-0.1818,0,-0.1818,0,-0.1821,-0.1816,-0.1816,0,0,0,-0.1759,-0.1766,-0.1778,-0.1756,-0.1764,-0.1772,-0.1767,-0.1796,-0.1799,-0.182,-0.1819,-0.182,-0.1822,-0.1816,-0.1816,-0.1912,-0.1913,0,0,-0.1759,-0.175,-0.1776,-0.1779,-0.1766,-0.1767,-0.1767,-0.1797,-0.1795,-0.1819,-0.1821,-0.1823,-0.1816,-0.1817,-0.1912,-0.1913,0,0,0,-0.1761,-0.1749,-0.1759,-0.1778,-0.178,-0.1767,-0.1768,-0.1793,-0.1799,-0.1821,-0.1823,-0.1817,-0.1817,-0.1911,-0.1912,-0.1934,0,0,0,-0.176,-0.1751,-0.1759,-0.1753,-0.1779,-0.1781,-0.1763,-0.1797,-0.1801,-0.1823,-0.1817,-0.1818,-0.191,-0.1912,-0.1932,-0.1939,0,0,0,-0.1756,-0.175,-0.1753,-0.1752,-0.176,-0.1781,-0.1788,-0.1797,-0.1802,-0.1816,-0.1818,-0.191,-0.1911,-0.193,-0.1936,-0.1988,0,0,0,-0.1744,-0.1742,-0.1753,-0.1761,-0.176,-0.1802,-0.1787,-0.1814,-0.1828,-0.1817,-0.191,-0.1912,-0.1929,-0.1934,-0.1986,-0.2066,-0.2083,0,0,-0.1735,-0.174,-0.175,-0.1761,-0.1809,-0.1801,-0.1852,-0.186,-0.1859,-0.19,-0.1902,-0.1933,-0.1936,-0.1988,-0.2153,-0.2168,0,0,0,-0.1745,-0.1753,-0.177,-0.18,-0.1834,-0.1877,-0.1887,-0.1893,-0.1922,-0.1876,-0.1957,-0.1959,-0.1991,-0.2036,-0.2047,-0.1919,-0.1919,-0.1919,-0.1919,-0.1721,-0.1757,-0.179,-0.1843,-0.1879,-0.1933,-0.196,-0.1977,-0.1967,-0.1987,-0.1996,-0.2074,-0.2123,-0.2132,-0.2018,-0.2018,-0.2018,-0.2018,-0.2019,-0.1725,-0.1742,-0.1809,-0.1848,-0.1918,-0.1964,-0.2029,-0.2031,-0.2076,-0.2044,-0.2074,-0.2079,-0.2147,-0.2021,-0.202,-0.202,-0.202,-0.202,-0.2019,-0.1708,-0.1719,-0.1753,-0.1821,-0.1899,-0.1973,-0.2063,-0.2082,-0.2101,-0.2127,-0.2197,-0.2197,-0.2083,-0.2151,-0.2151,-0.2151,-0.2152,-0.2152,-0.2152,-0.1656,-0.1697,-0.1719,-0.1792,-0.1848,-0.194,-0.207,-0.2142,-0.2227,-0.2238,-0.2239,-0.2119,-0.2115,-0.2092,-0.2156,-0.2156,-0.2155,-0.2155,-0.2154,-0.1609,-0.1615,-0.1657,-0.1702,-0.1843,-0.1938,-0.2097,-0.2314,-0.238,-0.2446,-0.2314,-0.2309,-0.2314,-0.2305,-0.2288,-0.2399,-0.2399,-0.2399,-0.24,-0.1553,-0.1567,-0.1613,-0.1696,-0.1828,-0.1944,-0.2152,-0.2252,-0.2336,-0.2276,-0.228,-0.2242,-0.2237,-0.2233,-0.2226,-0.2205,-0.2294,-0.2293,-0.2293,-0.1509,-0.1536,-0.1564,-0.1665,-0.1828,-0.1959,-0.2097,-0.2153,-0.2176,-0.2274,-0.211,-0.2422,-0.2378,-0.2366,-0.2367,-0.2353,-0.2322,0,0]},{"header":{"parameterUnit":"m.s-1","parameterCategory":2,"la1":30.2992,"la2":30.254,"lo1":-89.0895,"lo2":-89.0443,"dy":0.0025,"dx":0.0025,"nx":19,"ny":19,"refTime":"2026-04-30T21:00:00:Z","depth":"2","parameterNumber":3,"parameterNumberName":"V-component_of_CURRENTS"},"data":[0,0,0,-0.0441,-0.0439,-0.0342,-0.0342,-0.0255,-0.0254,0,0,0,0,0,0,0,0,0,0,0,-0.0479,-0.0479,-0.0441,-0.0439,-0.0342,-0.0342,-0.0255,-0.0254,0,0,0,0,0,0,0,0,0,0,0,-0.0479,-0.0479,-0.0478,-0.0439,-0.0342,-0.0342,-0.0255,-0.0317,0,0,0,0,0,0,0,0,0,0,-0.0405,-0.044,-0.0479,-0.0478,-0.0438,-0.0342,-0.0342,-0.0319,-0.0313,-0.0313,0,-0.0305,0,-0.0281,-0.025,-0.025,0,0,0,-0.0429,-0.0445,-0.0419,-0.0478,-0.0438,-0.0343,-0.0383,-0.0315,-0.0308,-0.0305,-0.0303,-0.03,-0.0279,-0.025,-0.025,-0.0238,-0.0238,0,0,-0.0435,-0.0459,-0.0424,-0.0415,-0.0423,-0.0386,-0.038,-0.031,-0.0309,-0.0303,-0.0297,-0.0278,-0.0249,-0.0249,-0.0238,-0.0238,0,0,0,-0.0457,-0.0463,-0.0437,-0.0419,-0.04,-0.0384,-0.0377,-0.0312,-0.0303,-0.0296,-0.0277,-0.0249,-0.0248,-0.0237,-0.0238,-0.0291,0,0,0,-0.046,-0.0476,-0.044,-0.0453,-0.0401,-0.035,-0.038,-0.0308,-0.0299,-0.0277,-0.0249,-0.0248,-0.0237,-0.0238,-0.0289,-0.0323,0,0,0,-0.0482,-0.0479,-0.047,-0.0455,-0.0416,-0.035,-0.0337,-0.0305,-0.0288,-0.025,-0.0248,-0.0237,-0.0237,-0.0287,-0.0319,-0.0318,0,0,0,-0.0505,-0.0509,-0.0471,-0.0474,-0.0417,-0.0391,-0.0337,-0.031,-0.0283,-0.0249,-0.0237,-0.0238,-0.0287,-0.0317,-0.0316,-0.0324,-0.0333,0,0,-0.0526,-0.0512,-0.0516,-0.048,-0.0484,-0.0403,-0.0397,-0.0337,-0.0294,-0.026,-0.0259,-0.029,-0.0319,-0.0318,-0.0368,-0.0376,0,0,0,-0.0533,-0.0542,-0.0535,-0.0527,-0.049,-0.0463,-0.0394,-0.0357,-0.0314,-0.0282,-0.0291,-0.0308,-0.0305,-0.0305,-0.0312,-0.0241,-0.0241,-0.0241,-0.0241,-0.0597,-0.0583,-0.0606,-0.0588,-0.0567,-0.0502,-0.0466,-0.0406,-0.0358,-0.035,-0.0351,-0.039,-0.0393,-0.0397,-0.0345,-0.0346,-0.0346,-0.0346,-0.0346,-0.0659,-0.0678,-0.0667,-0.0683,-0.0649,-0.0634,-0.0542,-0.0493,-0.0433,-0.0399,-0.0392,-0.0363,-0.0407,-0.035,-0.035,-0.0349,-0.0349,-0.0348,-0.0348,-0.071,-0.072,-0.0731,-0.0762,-0.0769,-0.0714,-0.0698,-0.0598,-0.0502,-0.0487,-0.0457,-0.0455,-0.0414,-0.0476,-0.0476,-0.0476,-0.0476,-0.0476,-0.0476,-0.0754,-0.0769,-0.0826,-0.0844,-0.0876,-0.0874,-0.0781,-0.0724,-0.0603,-0.0523,-0.0522,-0.0433,-0.0429,-0.0421,-0.0479,-0.0478,-0.0478,-0.0478,-0.0478,-0.081,-0.082,-0.0917,-0.0966,-0.1047,-0.1091,-0.0979,-0.085,-0.0743,-0.0687,-0.0525,-0.0523,-0.0502,-0.0496,-0.0489,-0.0561,-0.0561,-0.0561,-0.0561,-0.0849,-0.0861,-0.1023,-0.1141,-0.1227,-0.1209,-0.1207,-0.0977,-0.0714,-0.0564,-0.0563,-0.0541,-0.0538,-0.0515,-0.0509,-0.0501,-0.0576,-0.0576,-0.0576,-0.0893,-0.0945,-0.1086,-0.1221,-0.1335,-0.1349,-0.1345,-0.1065,-0.0661,-0.0575,-0.0551,-0.0565,-0.0529,-0.0525,-0.0486,-0.0478,-0.0463,0,0]}],[{"header":{"parameterUnit":"m.s-1","parameterCategory":2,"la1":30.2992,"la2":30.254,"lo1":-89.0895,"lo2":-89.0443,"dy":0.0025,"dx":0.0025,"nx":19,"ny":19,"refTime":"2026-04-30T21:00:00:Z","depth":"4","parameterNumber":2,"parameterNumberName":"U-component_of_CURRENTS"},"data":[0,0,0,-0.1059,-0.1061,-0.115,-0.115,-0.1193,-0.1193,0,0,0,0,0,0,0,0,0,0,0,-0.1028,-0.1029,-0.1059,-0.1061,-0.115,-0.115,-0.1193,-0.1193,0,0,0,0,0,0,0,0,0,0,0,-0.1028,-0.1029,-0.1029,-0.1062,-0.115,-0.115,-0.1193,-0.1143,0,0,0,0,0,0,0,0,0,0,-0.1065,-0.1045,-0.1028,-0.1029,-0.1062,-0.115,-0.115,-0.1141,-0.1146,-0.1134,0,-0.1154,0,-0.1175,-0.1195,-0.1195,0,0,0,-0.1058,-0.1041,-0.1069,-0.103,-0.1063,-0.1149,-0.1109,-0.1145,-0.115,-0.114,-0.1155,-0.1157,-0.1176,-0.1195,-0.1195,-0.1213,-0.1213,0,0,-0.1053,-0.1038,-0.1065,-0.1072,-0.1093,-0.1106,-0.1112,-0.1149,-0.1153,-0.1155,-0.1159,-0.1177,-0.1195,-0.1196,-0.1213,-0.1213,0,0,0,-0.1041,-0.1035,-0.1063,-0.107,-0.1092,-0.1109,-0.1115,-0.1151,-0.1162,-0.1159,-0.1177,-0.1195,-0.1196,-0.1213,-0.1213,-0.1267,0,0,0,-0.1038,-0.1028,-0.106,-0.1051,-0.1092,-0.1132,-0.1117,-0.116,-0.1165,-0.1177,-0.1196,-0.1196,-0.1213,-0.1213,-0.1266,-0.1279,0,0,0,-0.1023,-0.1026,-0.104,-0.1051,-0.1091,-0.1132,-0.1146,-0.1162,-0.1175,-0.1195,-0.1196,-0.1213,-0.1213,-0.1265,-0.1277,-0.1323,0,0,0,-0.0999,-0.1015,-0.104,-0.1065,-0.109,-0.1121,-0.1146,-0.1183,-0.1202,-0.1196,-0.1213,-0.1213,-0.1264,-0.1275,-0.1322,-0.1207,0,0,0,-0.1003,-0.1016,-0.103,-0.1054,-0.108,-0.1108,-0.1137,-0.1185,-0.1194,-0.1195,-0.1196,-0.1266,-0.1277,-0.1323,-0.1209,0,0,0,0,-0.102,-0.103,-0.1045,-0.1068,-0.1094,-0.1125,-0.1157,-0.119,-0.124,-0.1207,-0.1252,-0.1256,-0.1284,-0.121,-0.1213,-0.1213,-0.1213,-0.1213,-0.1213,-0.0985,-0.1011,-0.1022,-0.1051,-0.1076,-0.1137,-0.1179,-0.1221,-0.1232,-0.127,-0.129,-0.1345,-0.1267,-0.1283,-0.1283,-0.1283,-0.1283,-0.1284,-0.1284,-0.0971,-0.0967,-0.1002,-0.1032,-0.1069,-0.1101,-0.1191,-0.1244,-0.1329,-0.1319,-0.1345,-0.1258,-0.1289,-0.1288,-0.1287,-0.1286,-0.1286,-0.1286,-0.1285,-0.0933,-0.0928,-0.0966,-0.0992,-0.1039,-0.1108,-0.1207,-0.13,-0.1364,-0.1409,-0.1352,-0.1383,-0.1392,-0.1446,-0.1446,-0.1447,-0.1447,-0.1447,-0.1447,-0.0868,-0.0896,-0.0915,-0.0957,-0.0982,-0.1067,-0.1237,-0.1313,-0.1407,-0.139,-0.1442,-0.14,-0.1395,-0.14,-0.1451,-0.1451,-0.145,-0.145,-0.1449,-0.0805,-0.0837,-0.0854,-0.0882,-0.0933,-0.099,-0.1166,-0.1315,-0.139,-0.1404,-0.1377,-0.138,-0.1351,-0.1347,-0.135,-0.1389,-0.1387,-0.1386,0,-0.0753,-0.0771,-0.0801,-0.0821,-0.0852,-0.0942,-0.1058,-0.1179,-0.1277,-0.1235,-0.1355,-0.1318,-0.1321,-0.128,-0.1275,-0.1272,0,0,0,-0.0702,-0.0727,-0.0732,-0.077,-0.0805,-0.092,-0.1082,-0.1125,-0.1238,-0.1317,-0.1354,-0.1363,-0.1413,-0.1464,-0.1426,-0.142,-0.1427,0,0]},{"header":{"parameterUnit":"m.s-1","parameterCategory":2,"la1":30.2992,"la2":30.254,"lo1":-89.0895,"lo2":-89.0443,"dy":0.0025,"dx":0.0025,"nx":19,"ny":19,"refTime":"2026-04-30T21:00:00:Z","depth":"4","parameterNumber":3,"parameterNumberName":"V-component_of_CURRENTS"},"data":[0,0,0,-0.0031,-0.003,0.0028,0.0029,0.0132,0.0133,0,0,0,0,0,0,0,0,0,0,0,-0.0052,-0.0052,-0.0031,-0.003,0.0028,0.0029,0.0132,0.0133,0,0,0,0,0,0,0,0,0,0,0,-0.0052,-0.0052,-0.0052,-0.003,0.0028,0.0029,0.0132,0.0084,0,0,0,0,0,0,0,0,0,0,0.0025,-0.0004,-0.0052,-0.0052,-0.0029,0.0028,0.0029,0.0081,0.0087,0.0111,0,0.0111,0,0.012,0.014,0.014,0,0,0,-0.0018,-0.0009,0.0006,-0.0052,-0.0029,0.0028,0.0005,0.0084,0.009,0.0118,0.0112,0.0116,0.0122,0.014,0.0141,0.0225,0.0225,0,0,-0.0021,-0.0035,0.0001,0.0009,-0.0025,0.0003,0.0007,0.0088,0.0091,0.0112,0.0118,0.0124,0.0141,0.0142,0.0224,0.0225,0,0,0,-0.0038,-0.0038,-0.0026,0.0005,0.0011,0.0005,0.0009,0.0088,0.0091,0.0119,0.0125,0.0141,0.0143,0.0224,0.0225,0.016,0,0,0,-0.004,-0.0049,-0.0028,-0.0034,0.0009,0.0046,0.0007,0.0085,0.0095,0.0125,0.0142,0.0144,0.0224,0.0224,0.0161,0.0118,0,0,0,-0.0053,-0.005,-0.0047,-0.0036,-0.0016,0.0045,0.0053,0.0088,0.0098,0.014,0.0144,0.0224,0.0224,0.0163,0.0121,0.0111,0,0,0,-0.0063,-0.007,-0.0047,-0.005,-0.0017,0.0027,0.0053,0.0088,0.012,0.0142,0.0224,0.0224,0.0163,0.0122,0.0112,0.0041,0,0,0,-0.0079,-0.0072,-0.0074,-0.0053,-0.0027,0.002,0.0057,0.0103,0.0138,0.0201,0.0203,0.0161,0.0121,0.0111,0.007,0,0,0,0,-0.0084,-0.0087,-0.0075,-0.0055,-0.0012,0.0024,0.0087,0.0106,0.0144,0.0157,0.0189,0.0166,0.0161,0.0127,0.0227,0.0227,0.0227,0.0227,0.0226,-0.0113,-0.0094,-0.0088,-0.0054,-0.0022,0.0038,0.0061,0.0104,0.0145,0.0147,0.0134,0.0108,0.0072,0.0168,0.0167,0.0167,0.0167,0.0167,0.0167,-0.014,-0.0135,-0.0103,-0.0099,-0.0049,-0.0015,0.0041,0.0056,0.008,0.0108,0.0108,0.0087,0.0161,0.0162,0.0163,0.0164,0.0164,0.0164,0.0165,-0.0161,-0.0154,-0.0161,-0.0144,-0.0126,-0.0075,-0.0096,-0.005,0.001,0.0004,-0.0012,0.0071,0.0053,0.0007,0.0006,0.0006,0.0006,0.0006,0.0006,-0.0178,-0.0177,-0.0212,-0.0196,-0.0202,-0.0213,-0.0186,-0.0171,-0.0098,-0.0098,-0.002,0.0055,0.006,0.0046,0.0002,0.0003,0.0003,0.0003,0.0004,-0.0194,-0.022,-0.0267,-0.0294,-0.032,-0.0334,-0.0302,-0.0273,-0.0255,-0.0221,-0.0133,-0.0126,-0.0109,-0.0099,-0.0119,-0.0213,-0.0214,-0.0215,0,-0.0214,-0.0226,-0.0328,-0.0393,-0.0439,-0.0414,-0.0438,-0.0396,-0.0301,-0.0315,-0.0237,-0.014,-0.0134,-0.0115,-0.0108,-0.0132,0,0,0,-0.0226,-0.0263,-0.0349,-0.0433,-0.05,-0.0478,-0.045,-0.0451,-0.031,-0.0304,-0.0243,-0.0236,-0.0096,-0.0009,0.0036,0.0042,0.0021,0,0]}]]